This is the latest recevied weather packets stored in our database for station/object KC1TEM-13. If no packets are shown the sender has not sent any weather packets the latest 10 day(s).
| Time | Temp. | Humidity | Pressure | Rain* | Wind** | Luminosity | Snow |
|---|---|---|---|---|---|---|---|
| 1777835607 | 12.78° C | 42% | 1006.2 hPa | 0 mm | - | 603 W/m² | - |
| 1777835303 | 12.78° C | 44% | 1006 hPa | 0 mm | - | 368 W/m² | - |
| 1777835000 | 12.22° C | 44% | 1005.8 hPa | 0 mm | - | 394 W/m² | - |
| 1777834697 | 12.22° C | 40% | 1006 hPa | 0 mm | - | 557 W/m² | - |
| 1777834394 | 12.22° C | 41% | 1006.1 hPa | 0 mm | - | 436 W/m² | - |
| 1777834093 | 12.78° C | 43% | 1006 hPa | 0 mm | - | 467 W/m² | - |
| 1777833790 | 12.78° C | 46% | 1006.1 hPa | 0 mm | - | 407 W/m² | - |
| 1777833486 | 12.78° C | 42% | 1006.2 hPa | 0 mm | - | 474 W/m² | - |
| 1777833183 | 12.22° C | 44% | 1006 hPa | 0 mm | - | 613 W/m² | - |
| 1777832880 | 11.67° C | 47% | 1006.1 hPa | 0 mm | - | 516 W/m² | - |
| 1777832580 | 11.11° C | 46% | 1006.1 hPa | 0 mm | - | 567 W/m² | - |
| 1777832276 | 10.56° C | 48% | 1006 hPa | 0 mm | - | 559 W/m² | - |
| 1777831973 | 10.56° C | 50% | 1006.2 hPa | 0 mm | - | 231 W/m² | - |
| 1777831669 | 11.11° C | 51% | 1006.1 hPa | 0 mm | - | 180 W/m² | - |
| 1777831368 | 11.11° C | 48% | 1006 hPa | 0 mm | - | 212 W/m² | - |
| 1777831064 | 10.56° C | 49% | 1006 hPa | 0 mm | - | 349 W/m² | - |
| 1777830762 | 10.56° C | 48% | 1005.9 hPa | 0 mm | - | 226 W/m² | - |
| 1777830458 | 10.56° C | 49% | 1006 hPa | 0 mm | - | 183 W/m² | - |
| 1777830156 | 10.56° C | 51% | 1005.9 hPa | 0 mm | - | 239 W/m² | - |
| 1777829856 | 10.56° C | 49% | 1006.1 hPa | 0 mm | - | 215 W/m² | - |
| 1777829552 | 10.56° C | 50% | 1005.9 hPa | 0 mm | - | 163 W/m² | - |
| 1777829249 | 10.56° C | 49% | 1005.9 hPa | 0 mm | - | 204 W/m² | - |
| 1777828947 | 10.56° C | 52% | 1005.7 hPa | 0 mm | - | 260 W/m² | - |
| 1777828643 | 10.56° C | 55% | 1006 hPa | 0 mm | - | 252 W/m² | - |
| 1777828340 | 10.56° C | 56% | 1005.9 hPa | 0 mm | - | 250 W/m² | - |
* Rain latest hour (hover to see other rain measurements)
** Current wind speed in m/s (hover to see current wind gust speed)